N6CTG Weather Reports


Display with metric or nautical units.
time (UTC)temp
F
wind
direction
speed
MPH
gust
MPH
rain 1hr
in
rain 24hr
in
rain mn
in
humidity
%
barometer
mb
20260831011804 84 248 3.0 9.0 0.00 0.00 0.00 54 1007.4
20260831010904 85 243 4.0 8.0 0.00 0.00 0.00 52 1007.2
20260831010004 86 244 3.0 8.0 0.00 0.00 0.00 49 1007.3
20260831005404 86 241 4.0 8.0 0.00 0.00 0.00 48 1007.3
20260831004504 88 236 4.0 8.0 0.00 0.00 0.00 46 1007.2
20260831003604 88 230 4.0 9.0 0.00 0.00 0.00 42 1007.2
20260831002704 89 217 3.0 8.0 0.00 0.00 0.00 41 1007.2
20260831001804 89 230 5.0 10.0 0.00 0.00 0.00 40 1007.2
20260831000904 90 230 4.0 10.0 0.00 0.00 0.00 39 1007.2
20260831000004 90 225 4.0 8.0 0.00 0.00 0.00 37 1007.2
20260830235404 90 226 5.0 11.0 0.00 0.00 0.00 37 1007.2
20260830234504 91 230 5.0 9.0 0.00 0.00 0.00 35 1007.1
20260830233604 91 230 5.0 11.0 0.00 0.00 0.00 34 1007.2
20260830232704 91 222 5.0 11.0 0.00 0.00 0.00 33 1007.2
20260830231804 93 221 4.0 11.0 0.00 0.00 0.00 31 1007.2
20260830230904 93 204 4.0 9.0 0.00 0.00 0.00 30 1007.2
20260830230004 93 207 4.0 9.0 0.00 0.00 0.00 29 1007.3
20260830225404 93 159 4.0 9.0 0.00 0.00 0.00 28 1007.2
20260830224504 94 176 4.0 8.0 0.00 0.00 0.00 26 1007.2
20260830223604 94 186 4.0 11.0 0.00 0.00 0.00 25 1007.4
20260830222704 94 209 4.0 13.0 0.00 0.00 0.00 25 1007.3
20260830221825 94 212 5.0 10.0 0.00 0.00 0.00 25 1007.6
20260830220904 95 195 4.0 10.0 0.00 0.00 0.00 25 1007.6
20260830220004 94 204 4.0 10.0 0.00 0.00 0.00 25 1007.6
20260830215404 94 203 4.0 10.0 0.00 0.00 0.00 26 1007.7
20260830214504 94 214 5.0 9.0 0.00 0.00 0.00 26 1007.8
20260830213625 94 215 4.0 9.0 0.00 0.00 0.00 26 1007.9
20260830212704 94 215 5.0 11.0 0.00 0.00 0.00 26 1007.9
20260830211825 93 219 5.0 11.0 0.00 0.00 0.00 27 1008.1
20260830210904 94 201 5.0 12.0 0.00 0.00 0.00 28 1008.2
20260830210004 94 216 6.0 12.0 0.00 0.00 0.00 29 1008.2
20260830205404 94 226 6.0 12.0 0.00 0.00 0.00 29 1008.3
20260830204504 93 223 5.0 15.0 0.00 0.00 0.00 29 1008.4
20260830203604 94 211 5.0 11.0 0.00 0.00 0.00 31 1008.5
20260830202704 94 201 4.0 9.0 0.00 0.00 0.00 31 1008.4
20260830201804 93 207 4.0 11.0 0.00 0.00 0.00 31 1008.4
20260830200904 93 193 4.0 8.0 0.00 0.00 0.00 31 1008.5
20260830200004 93 209 4.0 10.0 0.00 0.00 0.00 32 1008.6
20260830195404 93 213 5.0 10.0 0.00 0.00 0.00 33 1008.6
20260830194504 92 203 4.0 9.0 0.00 0.00 0.00 33 1008.6
20260830193604 92 226 5.0 10.0 0.00 0.00 0.00 34 1008.7
20260830192704 92 190 3.0 9.0 0.00 0.00 0.00 33 1008.8
20260830191825 91 208 4.0 8.0 0.00 0.00 0.00 35 1008.9
20260830190904 91 199 4.0 10.0 0.00 0.00 0.00 35 1008.9
20260830190004 91 229 5.0 11.0 0.00 0.00 0.00 34 1008.9
20260830185425 91 236 5.0 11.0 0.00 0.00 0.00 34 1009.0
20260830184504 91 229 5.0 9.0 0.00 0.00 0.00 35 1009.0
20260830183604 91 233 5.0 8.0 0.00 0.00 0.00 33 1009.0
20260830182704 90 231 5.0 10.0 0.00 0.00 0.00 34 1009.0
20260830181804 90 228 4.0 9.0 0.00 0.00 0.00 34 1009.1
20260830180925 89 235 5.0 11.0 0.00 0.00 0.00 33 1009.1
20260830180004 89 226 5.0 11.0 0.00 0.00 0.00 33 1009.1
20260830175404 89 220 4.0 9.0 0.00 0.00 0.00 32 1009.1
20260830174525 89 230 5.0 10.0 0.00 0.00 0.00 33 1009.0
20260830173604 89 235 5.0 11.0 0.00 0.00 0.00 32 1008.9
20260830172725 88 234 5.0 9.0 0.00 0.00 0.00 32 1008.9
20260830171804 88 231 5.0 10.0 0.00 0.00 0.00 33 1008.9
20260830170925 88 237 4.0 8.0 0.00 0.00 0.00 36 1008.8
20260830170004 87 233 4.0 9.0 0.00 0.00 0.00 35 1008.7
20260830165404 87 228 3.0 8.0 0.00 0.00 0.00 35 1008.7
20260830164504 86 230 1.0 6.0 0.00 0.00 0.00 38 1008.7
20260830163604 86 224 1.0 3.0 0.00 0.00 0.00 42 1008.7
20260830162704 86 240 1.0 3.0 0.00 0.00 0.00 42 1008.7
20260830161804 84 240 0.0 1.0 0.00 0.00 0.00 44 1008.9
20260830160904 83 0 0.0 0.0 0.00 0.00 0.00 44 1008.9
20260830160004 82 0 0.0 0.0 0.00 0.00 0.00 46 1009.1
20260830155404 82 222 0.0 1.0 0.00 0.00 0.00 49 1009.1
20260830154504 80 0 0.0 0.0 0.00 0.00 0.00 51 1009.2
20260830153604 78 253 0.0 2.0 0.00 0.00 0.00 53 1009.2
20260830152704 78 231 0.0 1.0 0.00 0.00 0.00 55 1009.1
20260830151804 76 0 0.0 0.0 0.00 0.00 0.00 58 1009.2
20260830150904 75 224 0.0 1.0 0.00 0.00 0.00 60 1009.3
20260830150004 74 0 0.0 0.0 0.00 0.00 0.00 63 1009.5
20260830145404 74 0 0.0 0.0 0.00 0.00 0.00 65 1009.6
20260830144525 74 0 0.0 0.0 0.00 0.00 0.00 65 1009.7
20260830143604 73 0 0.0 0.0 0.00 0.00 0.00 66 1009.7
20260830142704 72 0 0.0 0.0 0.00 0.00 0.00 70 1009.8
20260830141804 70 0 0.0 0.0 0.00 0.00 0.00 72 1010.0
20260830140904 68 0 0.0 0.0 0.00 0.00 0.00 77 1009.9
20260830140025 66 0 0.0 0.0 0.00 0.00 0.00 73 1010.1
20260830135404 66 0 0.0 0.0 0.00 0.00 0.00 73 1010.1
20260830134504 66 0 0.0 0.0 0.00 0.00 0.00 73 1010.0
20260830133604 66 0 0.0 0.0 0.00 0.00 0.00 73 1010.0
20260830132704 66 0 0.0 0.0 0.00 0.00 0.00 73 1010.0
20260830131804 66 0 0.0 0.0 0.00 0.00 0.00 73 1010.1
20260830130904 66 0 0.0 0.0 0.00 0.00 0.00 73 1010.2
20260830130004 66 0 0.0 0.0 0.00 0.00 0.00 73 1010.2
20260830125404 66 0 0.0 0.0 0.00 0.00 0.00 73 1010.3
20260830124504 66 0 0.0 0.0 0.00 0.00 0.00 73 1010.3
20260830123625 66 0 0.0 0.0 0.00 0.00 0.00 73 1010.2
20260830122704 66 0 0.0 0.0 0.00 0.00 0.00 73 1010.3
20260830121825 66 0 0.0 0.0 0.00 0.00 0.00 73 1010.2
20260830120904 66 0 0.0 0.0 0.00 0.00 0.00 73 1010.3
20260830120004 66 0 0.0 0.0 0.00 0.00 0.00 73 1010.4
20260830115404 66 0 0.0 0.0 0.00 0.00 0.00 73 1010.4
20260830114504 66 0 0.0 0.0 0.00 0.00 0.00 73 1010.4
20260830113604 66 0 0.0 0.0 0.00 0.00 0.00 73 1010.3
20260830112704 66 0 0.0 0.0 0.00 0.00 0.00 73 1010.3
20260830111804 66 0 0.0 0.0 0.00 0.00 0.00 73 1010.2
20260830110904 66 0 0.0 0.0 0.00 0.00 0.00 73 1010.2
20260830110005 66 0 0.0 0.0 0.00 0.00 0.00 73 1010.3
20260830105404 66 0 0.0 0.0 0.00 0.00 0.00 73 1010.3
20260830104504 66 0 0.0 0.0 0.00 0.00 0.00 73 1010.4
20260830103604 66 0 0.0 0.0 0.00 0.00 0.00 73 1010.4
20260830102704 66 0 0.0 0.0 0.00 0.00 0.00 73 1010.4
20260830101825 66 0 0.0 0.0 0.00 0.00 0.00 73 1010.2
20260830100904 68 0 0.0 0.0 0.00 0.00 0.00 73 1010.2
20260830100004 68 0 0.0 0.0 0.00 0.00 0.00 73 1010.1
20260830095404 68 0 0.0 0.0 0.00 0.00 0.00 73 1010.1
20260830094504 68 0 0.0 0.0 0.00 0.00 0.00 72 1010.1
20260830093604 69 0 0.0 0.0 0.00 0.00 0.00 72 1010.1
20260830092725 69 0 0.0 0.0 0.00 0.00 0.00 71 1010.2
20260830091804 69 0 0.0 0.0 0.00 0.00 0.00 71 1010.2
20260830090904 69 0 0.0 0.0 0.00 0.00 0.00 71 1010.2
20260830090004 69 0 0.0 0.0 0.00 0.00 0.00 70 1010.2
20260830085404 70 0 0.0 0.0 0.00 0.00 0.00 70 1010.2
20260830084504 70 0 0.0 0.0 0.00 0.00 0.00 70 1010.1
20260830083604 70 0 0.0 0.0 0.00 0.00 0.00 70 1010.2
20260830082704 70 0 0.0 0.0 0.00 0.00 0.00 70 1010.1
20260830081825 71 0 0.0 0.0 0.00 0.00 0.00 70 1010.1
20260830080925 71 0 0.0 0.0 0.00 0.00 0.00 70 1010.2
20260830080004 71 0 0.0 0.0 0.00 0.00 0.00 70 1010.2
20260830075404 71 0 0.0 0.0 0.00 0.00 0.00 70 1010.3
20260830074504 71 0 0.0 0.0 0.00 0.00 0.00 70 1010.3
20260830073604 72 0 0.0 0.0 0.00 0.00 0.00 69 1010.3
20260830072704 72 0 0.0 0.0 0.00 0.00 0.00 69 1010.4
20260830071804 72 0 0.0 0.0 0.00 0.00 0.00 68 1010.3
20260830070904 72 0 0.0 0.0 0.00 0.00 0.00 68 1010.4
20260830070004 73 0 0.0 0.0 0.00 0.00 0.00 68 1010.4
20260830065404 73 0 0.0 0.0 0.00 0.00 0.00 67 1010.5
20260830064504 73 0 0.0 0.0 0.00 0.00 0.00 67 1010.5
20260830063604 74 0 0.0 0.0 0.00 0.00 0.00 67 1010.4
20260830062704 74 0 0.0 0.0 0.00 0.00 0.00 66 1010.4
20260830061804 74 0 0.0 0.0 0.00 0.00 0.00 65 1010.4
20260830060904 75 0 0.0 0.0 0.00 0.00 0.00 64 1010.4
20260830060004 75 0 0.0 0.0 0.00 0.00 0.00 64 1010.4
20260830055404 75 0 0.0 0.0 0.00 0.00 0.00 64 1010.4
20260830054504 76 0 0.0 0.0 0.00 0.00 0.00 63 1010.4
20260830053604 76 0 0.0 0.0 0.00 0.00 0.00 62 1010.4
20260830052704 76 0 0.0 0.0 0.00 0.00 0.00 61 1010.3
20260830051804 76 0 0.0 0.0 0.00 0.00 0.00 61 1010.4
20260830050904 76 0 0.0 0.0 0.00 0.00 0.00 60 1010.4
20260830050004 77 0 0.0 0.0 0.00 0.00 0.00 60 1010.4
20260830045425 77 0 0.0 0.0 0.00 0.00 0.00 59 1010.4
20260830044504 77 0 0.0 0.0 0.00 0.00 0.00 59 1010.3
20260830043604 78 0 0.0 0.0 0.00 0.00 0.00 58 1010.3
20260830042704 78 0 0.0 0.0 0.00 0.00 0.00 57 1010.4
20260830041825 78 0 0.0 0.0 0.00 0.00 0.00 57 1010.3
20260830040925 79 0 0.0 0.0 0.00 0.00 0.00 58 1010.1
20260830040025 79 0 0.0 0.0 0.00 0.00 0.00 57 1010.1
20260830035404 80 0 0.0 0.0 0.00 0.00 0.00 56 1010.0
20260830034525 80 0 0.0 0.0 0.00 0.00 0.00 56 1010.0
20260830033604 81 0 0.0 0.0 0.00 0.00 0.00 56 1009.8
20260830032704 81 0 0.0 0.0 0.00 0.00 0.00 54 1009.7
20260830031804 82 0 0.0 0.0 0.00 0.00 0.00 54 1009.6
20260830030904 82 0 0.0 0.0 0.00 0.00 0.00 52 1009.5
20260830030004 83 0 0.0 0.0 0.00 0.00 0.00 51 1009.5
20260830025425 83 0 0.0 0.0 0.00 0.00 0.00 50 1009.4
20260830024504 84 239 0.0 2.0 0.00 0.00 0.00 48 1009.2
20260830023604 84 244 0.0 2.0 0.00 0.00 0.00 47 1009.1
20260830022704 85 273 0.0 1.0 0.00 0.00 0.00 46 1009.1
20260830021804 85 242 1.0 4.0 0.00 0.00 0.00 45 1009.2
20260830020904 86 238 2.0 4.0 0.00 0.00 0.00 45 1009.1
20260830020004 87 234 2.0 4.0 0.00 0.00 0.00 43 1009.2
20260830015404 87 238 2.0 7.0 0.00 0.00 0.00 42 1009.2
20260830014504 88 245 2.0 7.0 0.00 0.00 0.00 41 1009.2
20260830013604 88 243 3.0 7.0 0.00 0.00 0.00 41 1009.3
20260830012704 89 245 3.0 6.0 0.00 0.00 0.00 40 1009.3